Terminal Aerodrome Forecast
Issued by NWS

Home | Current Version | Previous Version | Text Only | Print | Product List | Glossary On
Versions: 1 2 3 4 5 6 7 8 9 10 11 12 13 14 15 16 17 18 19 20 21 22 23 24 25 26 27 28 29 30 31 32 33 34 35 36 37 38 39 40 41 42 43 44 45 46 47 48 49 50
000
FTUS46 KEKA 011200 CCA
TAFACV
TAF COR
KACV 011248Z 0113/0212 VRB03KT P6SM SCT008
     FM011400 VRB05KT P6SM SCT009
     FM011800 32008KT P6SM SKC
     FM012100 32010G18KT P6SM SKC
     FM020300 33006KT P6SM SKC
     FM020500 VRB03KT P6SM SKC=

USA.gov is the U.S. government's official web portal to all federal, state and local government web resources and services.